Wind_Speed
18 19 19 20 20 20 21 21 21 20 18 16 14 12 12 11 12 12 13 13 12 13 13 13 13 13 12 12 13 13 13 13 13 12 12 12 12 12 13 14 17 20 21
21 22 23 23 23 23 23 23 23 21 19 17 16 15 14 14 15 15 16 16 16 16 16 16 16 15 15 15 15 15 16 16 15 14 14 13 13 13 14 14 16 18 21
25 26 26 26 25 25 25 25 24 22 20 19 18 18 18 18 18 18 19 19 19 19 19 19 18 17 17 16 16 16 16 16 17 16 15 14 14 14 14 15 15 17 19
27 27 27 27 26 26 26 26 24 22 21 20 20 21 21 21 22 22 22 22 22 22 22 21 19 18 17 17 16 16 16 16 17 17 16 15 15 14 14 14 15 16 17
28 28 27 27 27 27 26 25 23 22 22 22 22 23 23 23 24 24 25 24 24 24 23 22 21 19 18 17 16 16 15 15 16 16 16 15 15 15 14 14 14 15 16
28 27 28 28 28 27 26 24 23 23 23 24 24 24 24 25 25 26 26 26 25 24 24 23 22 21 20 19 17 16 15 15 14 14 14 14 15 15 14 15 15 14 15
29 28 28 29 27 26 25 25 24 25 25 26 26 26 26 26 26 26 26 26 25 25 24 24 23 22 22 20 18 17 16 14 13 13 13 13 14 14 14 15 15 15 15
30 29 27 28 27 26 27 27 27 27 28 28 28 28 27 27 27 27 27 26 25 25 25 24 24 23 22 21 20 18 17 16 15 14 14 13 14 14 14 15 15 15 16
30 30 29 28 28 28 28 28 29 29 29 29 29 29 28 28 28 27 27 26 26 26 25 24 24 23 22 22 20 19 19 18 17 17 16 14 15 15 14 15 15 16 17
31 31 32 31 29 28 29 30 30 29 28 28 27 27 27 28 27 27 27 26 27 27 26 25 24 23 23 22 21 20 20 20 20 20 19 17 17 17 16 16 16 17 17
32 32 32 32 30 29 28 27 27 27 26 25 25 25 25 26 26 26 26 26 27 27 27 26 26 25 25 25 24 23 23 23 23 23 23 21 21 20 19 19 19 19 19
29 29 30 29 28 27 27 25 24 25 25 25 25 25 25 26 26 27 26 27 28 28 29 29 29 29 29 29 29 28 28 28 27 27 27 26 26 25 24 23 23 22 22
27 26 27 27 26 26 25 25 24 24 24 25 26 26 27 28 29 30 29 30 31 32 33 33 33 34 34 34 34 34 34 34 33 33 32 30 30 30 29 28 28 27 26
28 28 28 27 27 27 26 26 26 26 26 27 27 29 29 30 32 32 33 33 34 35 36 37 37 39 40 40 40 40 39 39 39 39 38 35 35 35 34 34 33 33 32
30 30 29 29 28 28 29 29 29 29 30 31 32 33 34 34 35 36 36 36 37 37 38 38 39 40 42 43 44 44 44 43 43 44 44 41 40 40 39 39 39 39 38
30 30 30 31 31 31 32 33 33 34 35 36 37 38 39 40 41 41 41 41 41 42 42 41 41 42 43 43 43 44 44 44 44 45 45 43 42 43 43 43 43 43 43
31 31 32 33 35 36 37 38 40 41 42 42 44 45 46 47 48 48 48 48 48 47 46 46 46 46 46 46 46 46 46 46 46 46 46 44 44 44 45 45 45 46 46
33 35 37 39 41 43 44 45 47 48 48 49 50 51 52 53 53 53 53 53 54 53 52 51 51 51 50 50 50 50 50 49 48 49 49 48 46 46 46 47 47 47 48
39 41 43 45 46 48 50 51 52 53 54 55 55 55 55 56 56 57 56 57 58 57 57 56 56 55 55 54 54 53 53 52 51 51 51 51 50 49 48 48 49 49 49
44 45 47 48 50 51 53 55 56 56 57 57 57 57 57 56 57 57 57 58 59 59 59 59 59 58 58 57 57 56 56 55 54 53 52 52 51 51 51 51 51 51 51
45 47 48 50 51 53 55 56 57 57 58 58 58 58 57 57 56 56 56 57 58 59 60 60 60 60 59 59 58 58 57 56 55 54 52 51 51 52 53 53 52 52 52
46 48 51 53 55 57 58 60 61 61 62 62 62 62 61 61 60 58 57 57 58 59 59 60 60 60 60 59 59 58 57 57 57 55 53 50 49 49 50 52 53 52 52
51 54 58 61 63 65 67 68 69 69 69 68 68 68 67 66 65 64 62 61 61 60 60 60 61 61 60 60 59 59 59 59 58 57 55 53 50 49 49 51 53 54 54
60 63 67 70 72 74 76 77 77 77 77 75 74 73 72 70 69 68 67 65 64 63 62 62 63 62 61 60 60 60 60 60 60 59 59 58 55 54 53 53 54 55 55
69 72 74 77 80 82 83 84 83 82 81 79 78 76 75 73 71 70 68 67 66 65 64 63 63 63 62 62 61 61 61 62 62 62 61 61 60 60 59 59 59 58 57
76 78 80 82 83 84 85 84 83 81 78 76 74 72 72 71 70 69 68 67 66 65 63 63 62 62 62 62 62 62 62 62 61 61 61 61 61 61 61 61 60 59 58
Wind_Direction
254 263 271 278 284 287 291 291 290 287 283 279 272 265 263 262 263 266 271 275 278 280 283 285 288 289 292 297 301 302 298 290 283 279 275 270 266 265 262 258 252 246 243
262 269 276 281 285 287 288 289 287 282 277 273 268 264 263 263 263 264 267 271 274 276 278 280 282 285 287 290 293 294 291 285 277 274 272 271 268 266 265 263 259 253 247
269 274 278 281 282 283 285 286 284 277 272 269 267 266 266 266 266 267 269 271 274 275 277 279 281 283 284 286 289 289 285 278 270 268 268 267 268 268 268 267 265 261 255
272 275 277 278 278 279 281 282 279 272 268 267 268 269 269 269 268 268 269 272 273 275 277 277 278 280 281 283 286 286 281 272 265 264 264 264 264 265 268 268 268 267 262
272 273 274 275 276 278 279 278 273 269 268 268 270 272 273 273 272 271 271 272 273 274 276 277 277 278 279 280 282 282 277 269 263 260 260 261 263 263 265 267 268 268 266
269 271 273 274 276 277 277 274 273 272 273 274 274 273 273 274 274 273 272 272 272 273 275 276 277 278 278 276 276 274 271 266 262 259 258 259 263 263 265 266 267 268 269
268 270 273 275 276 276 275 275 275 276 277 278 278 276 274 273 273 273 273 273 273 275 275 276 276 276 275 272 269 265 263 261 259 257 254 256 261 262 264 266 266 267 269
271 272 272 274 274 275 276 277 277 277 278 278 278 277 275 274 272 272 272 273 274 275 275 275 275 274 272 269 265 261 256 255 254 255 254 255 260 262 263 265 266 265 266
274 274 273 272 275 275 275 276 277 277 277 277 277 276 275 274 273 272 272 273 273 273 272 272 272 272 270 267 264 259 255 251 251 253 255 256 259 261 262 264 265 264 263
276 276 276 275 273 274 276 278 279 279 279 279 278 277 276 275 274 273 272 272 271 271 271 271 270 269 267 265 263 260 257 254 253 255 257 258 260 260 261 262 263 264 264
277 278 278 278 279 278 277 278 280 282 283 282 281 280 278 276 275 274 273 272 271 271 271 270 269 268 266 265 264 262 261 259 258 258 259 261 262 262 262 261 261 262 262
278 277 278 279 281 282 282 280 279 280 282 282 282 280 278 276 275 274 274 274 273 273 271 270 269 268 266 265 264 264 264 263 262 261 260 262 264 264 264 263 261 260 260
284 282 281 281 280 279 279 279 278 276 277 277 278 279 277 276 276 275 273 272 273 273 272 271 271 269 268 266 265 266 266 266 266 264 262 262 263 264 264 263 263 261 259
284 283 281 279 277 276 275 274 275 275 275 275 276 277 277 276 275 275 274 273 271 271 271 271 271 270 269 268 267 267 267 268 268 267 265 264 263 263 263 263 263 262 260
282 281 280 278 276 274 273 272 272 273 274 275 276 276 277 276 276 275 274 272 271 270 269 269 269 269 269 269 269 268 268 267 267 267 266 265 264 263 262 262 262 262 261
281 281 280 279 277 276 275 275 274 274 274 276 277 277 277 277 276 276 274 273 271 269 269 268 267 268 269 269 268 268 268 267 266 266 266 265 265 264 263 261 261 261 260
282 281 280 280 279 278 278 277 277 276 276 276 276 277 277 276 276 276 275 274 272 270 269 268 267 266 267 268 268 267 267 267 267 267 267 266 265 264 264 262 261 260 260
285 284 283 282 282 282 281 281 280 279 279 278 277 276 276 275 275 274 274 273 272 270 269 268 266 266 265 266 266 266 266 266 266 267 268 268 267 266 265 263 261 259 258
286 285 284 284 282 282 281 280 280 279 279 278 277 275 274 273 273 272 271 271 270 270 268 267 266 265 264 264 264 264 264 264 264 265 266 267 267 266 265 264 262 259 256
288 286 284 283 282 281 280 279 278 278 277 276 276 274 273 272 271 270 270 269 269 269 268 267 265 265 264 263 263 262 262 262 263 263 263 263 264 264 264 263 261 259 257
287 285 283 282 282 281 280 279 279 278 277 277 276 276 275 273 272 271 270 270 269 269 268 267 266 265 263 263 261 260 260 259 260 261 260 260 260 261 262 262 261 259 257
288 286 285 285 286 286 285 283 282 280 280 279 279 278 277 275 274 273 271 270 269 269 268 268 266 265 264 263 261 260 258 257 257 257 256 255 256 258 260 261 260 258 257
293 291 290 291 291 291 291 289 287 285 284 282 281 279 278 277 275 274 272 271 269 268 267 266 266 264 264 263 261 259 258 257 256 256 254 254 254 254 254 256 257 257 256
298 296 295 295 295 294 293 291 290 288 286 285 283 280 278 277 275 273 272 270 268 267 265 264 263 262 262 261 260 259 258 257 256 255 255 253 252 252 253 253 255 255 255
301 299 298 297 296 295 294 292 290 288 286 284 282 279 277 274 271 270 268 267 265 264 262 261 260 259 258 258 258 257 257 257 256 256 255 254 253 253 254 255 256 256 255
302 301 299 298 296 295 293 291 289 287 285 282 278 275 272 270 267 265 264 263 262 261 260 259 258 256 255 255 255 256 256 257 258 257 256 255 254 254 254 255 256 256 255
Height
5858 5858 5858 5858 5858 5858 5857 5856 5856 5855 5854 5854 5853 5853 5853 5854 5854 5854 5854 5854 5854 5853 5854 5854 5854 5854 5854 5853 5853 5853 5853 5853 5853 5853 5853 5853 5854 5855 5855 5856 5858 5859 5861
5855 5855 5855 5855 5855 5855 5855 5854 5853 5852 5852 5851 5851 5851 5851 5851 5851 5851 5851 5851 5851 5851 5851 5851 5851 5851 5851 5851 5851 5851 5851 5851 5851 5851 5851 5851 5852 5852 5853 5854 5855 5856 5858
5852 5852 5853 5852 5852 5852 5851 5851 5850 5849 5849 5848 5848 5848 5848 5848 5848 5848 5848 5848 5848 5849 5848 5848 5848 5849 5849 5849 5849 5849 5849 5848 5848 5849 5849 5849 5849 5850 5851 5852 5853 5854 5855
5849 5849 5849 5848 5848 5847 5847 5846 5846 5845 5845 5845 5845 5845 5845 5845 5845 5845 5845 5845 5845 5845 5845 5845 5845 5845 5845 5845 5845 5845 5845 5845 5845 5846 5846 5846 5847 5847 5848 5849 5850 5851 5852
5845 5845 5844 5844 5843 5843 5842 5842 5841 5841 5841 5841 5841 5841 5841 5841 5841 5841 5841 5841 5841 5841 5841 5841 5841 5841 5841 5841 5842 5842 5842 5842 5842 5843 5843 5844 5844 5845 5845 5846 5847 5848 5849
5840 5841 5839 5839 5838 5838 5838 5837 5837 5837 5837 5837 5836 5836 5836 5836 5836 5837 5837 5837 5837 5837 5837 5837 5837 5837 5837 5837 5838 5838 5838 5839 5839 5840 5841 5842 5842 5842 5843 5844 5844 5845 5846
5835 5836 5834 5834 5834 5833 5833 5832 5832 5832 5832 5832 5832 5832 5831 5832 5832 5832 5832 5832 5832 5832 5832 5832 5833 5833 5833 5833 5833 5834 5835 5836 5837 5837 5838 5839 5839 5840 5840 5841 5842 5842 5843
5830 5830 5830 5828 5828 5828 5828 5827 5827 5827 5826 5826 5826 5826 5826 5826 5826 5826 5827 5827 5827 5827 5827 5827 5828 5828 5828 5829 5829 5830 5831 5832 5833 5834 5835 5836 5836 5837 5837 5838 5838 5839 5840
5825 5824 5824 5824 5823 5822 5822 5822 5821 5821 5821 5820 5820 5820 5820 5820 5820 5820 5821 5821 5821 5821 5822 5822 5822 5823 5823 5824 5825 5826 5827 5828 5829 5830 5831 5832 5833 5833 5834 5834 5835 5836 5837
5820 5819 5818 5818 5818 5818 5817 5816 5815 5815 5815 5814 5814 5814 5814 5814 5814 5814 5815 5815 5815 5816 5816 5816 5817 5818 5819 5820 5821 5822 5823 5824 5825 5826 5827 5829 5829 5830 5830 5831 5831 5832 5833
5814 5813 5812 5811 5811 5811 5811 5811 5810 5809 5809 5808 5808 5808 5808 5808 5808 5808 5809 5809 5809 5810 5811 5811 5812 5812 5813 5815 5816 5817 5818 5819 5820 5821 5822 5824 5824 5825 5826 5827 5827 5828 5829
5808 5808 5806 5806 5805 5804 5804 5804 5804 5803 5803 5802 5802 5802 5802 5802 5802 5802 5803 5803 5803 5804 5805 5805 5806 5807 5807 5808 5810 5811 5813 5813 5814 5815 5817 5819 5819 5820 5821 5822 5823 5823 5824
5802 5801 5800 5800 5799 5798 5798 5797 5797 5797 5796 5796 5796 5796 5796 5796 5796 5796 5796 5797 5797 5797 5798 5799 5799 5800 5800 5801 5803 5804 5805 5807 5808 5808 5810 5812 5813 5814 5815 5816 5817 5818 5819
5796 5796 5794 5793 5792 5791 5790 5790 5789 5789 5789 5789 5789 5789 5789 5789 5789 5788 5789 5789 5789 5790 5790 5791 5792 5792 5792 5793 5794 5796 5797 5798 5799 5800 5802 5805 5805 5806 5808 5809 5811 5812 5813
5790 5789 5788 5786 5785 5784 5783 5782 5782 5782 5781 5781 5781 5780 5780 5780 5780 5780 5780 5780 5780 5781 5781 5782 5782 5782 5782 5783 5784 5786 5788 5789 5790 5790 5792 5795 5796 5797 5799 5801 5802 5804 5805
5783 5781 5780 5779 5777 5776 5775 5774 5774 5773 5773 5772 5772 5771 5771 5771 5770 5770 5770 5770 5770 5771 5771 5772 5772 5772 5772 5773 5774 5775 5776 5777 5778 5779 5781 5783 5785 5787 5789 5791 5793 5795 5797
5775 5774 5772 5771 5769 5767 5766 5765 5764 5763 5762 5762 5761 5761 5760 5760 5759 5759 5759 5759 5759 5759 5760 5760 5761 5761 5762 5762 5763 5764 5765 5766 5767 5768 5769 5772 5774 5775 5777 5780 5782 5784 5787
5768 5766 5764 5762 5760 5758 5756 5755 5753 5752 5751 5750 5749 5749 5748 5747 5746 5746 5746 5745 5745 5746 5747 5747 5748 5749 5749 5750 5751 5752 5753 5754 5755 5756 5757 5759 5761 5763 5765 5767 5770 5773 5776
5759 5756 5754 5751 5749 5747 5745 5743 5741 5739 5738 5736 5735 5734 5734 5733 5732 5732 5732 5731 5731 5731 5732 5733 5733 5734 5736 5737 5738 5739 5740 5741 5743 5744 5745 5746 5748 5750 5752 5754 5757 5760 5763
5749 5746 5742 5739 5737 5734 5731 5729 5726 5724 5722 5721 5719 5718 5718 5717 5716 5716 5716 5716 5716 5716 5716 5717 5718 5719 5721 5722 5724 5725 5726 5728 5729 5731 5733 5734 5735 5736 5739 5741 5743 5746 5749
5738 5734 5731 5727 5724 5720 5717 5714 5712 5709 5707 5705 5703 5702 5700 5700 5700 5700 5700 5700 5700 5701 5701 5701 5702 5704 5705 5706 5708 5710 5712 5713 5715 5717 5719 5721 5722 5723 5724 5727 5729 5732 5735
5726 5722 5718 5714 5709 5705 5701 5698 5696 5693 5691 5689 5686 5685 5683 5682 5682 5683 5683 5683 5683 5684 5685 5685 5686 5688 5689 5690 5692 5694 5696 5699 5700 5703 5705 5707 5709 5710 5711 5713 5715 5718 5721
5712 5707 5702 5698 5693 5688 5684 5680 5676 5674 5672 5670 5667 5665 5664 5663 5663 5663 5664 5665 5665 5667 5668 5669 5670 5671 5673 5674 5676 5678 5680 5683 5685 5688 5691 5693 5694 5696 5698 5700 5701 5704 5707
5695 5690 5684 5678 5673 5667 5662 5658 5654 5651 5649 5647 5644 5642 5642 5642 5641 5641 5643 5644 5645 5647 5649 5651 5652 5654 5655 5657 5659 5661 5664 5666 5669 5672 5675 5677 5680 5681 5683 5686 5687 5689 5692
5676 5670 5664 5657 5651 5644 5638 5632 5628 5625 5622 5620 5618 5616 5616 5618 5618 5619 5621 5622 5623 5626 5628 5631 5633 5635 5637 5639 5642 5645 5646 5649 5651 5655 5658 5661 5664 5666 5668 5671 5673 5675 5678
5656 5649 5641 5634 5626 5619 5612 5606 5601 5597 5595 5593 5592 5590 5589 5591 5592 5595 5598 5599 5601 5604 5608 5611 5614 5617 5619 5622 5625 5628 5630 5633 5634 5637 5641 5645 5649 5651 5653 5657 5659 5661 5664